Torna al catalogo

SL-16 DEB

LostLEO
NORAD 39844·DEBRIS·🇷🇺 Russia

Lanciato Dec 25, 1992 da Baikonur Cosmodrome

Loading…

Prossimi Passaggi (prossime 24 ore)

TLE

ObsoletoSource: Space-Track

Epoca: Nov 11, 2022, 21:17 UTC

1 39844U 92093KW  22315.88691631  .00002004  00000-0  73415-3 0  9995
2 39844  70.6528 174.0231 0045076 213.1175 146.7132 14.33567143986798

Traccia SL-16 DEB in tempo reale con AllMySat

Download on the App Store